CW5193 New Chelsea NF CA current weather conditions

sailwx.info

Wind from 176 at 5 knots gusting 14

Air temperature 10.6° C
Dewpoint 1.6° C

Last reported at 2015-May-23 00:41 UTC.
Time now 2015-May-23 01:17 UTC

Location: N 48°02' W 053°13'.
View on Google Maps.

See reports from other nearby stations

  
Tides and Currents Weather Stations Pressure Air Temp Water Temp Dewpoint Dewpoint Depression Visibility Wind Speed Wind Dir Waves Ship Positions
date/time (UTC)wind fromknots sea level pressurealtimeterstation pressurevisibilityair tempwater tempwave heightnotes
2015-May-23 00:41 176 5 gusting 14 10.6
2015-May-23 00:31 164 4 gusting 13 10.6
2015-May-23 00:21 176 4 gusting 12 10.6
2015-May-23 00:11 145 2 gusting 9 11.1
2015-May-23 00:01 181 4 gusting 7 10.6
2015-May-22 23:51 145 4 gusting 9 11.1
2015-May-22 23:41 126 4 gusting 6 11.1
2015-May-22 23:31 138 6 gusting 8 11.1
2015-May-22 23:21 148 6 gusting 8 11.1
2015-May-22 23:11 150 5 gusting 7 11.7
2015-May-22 23:01 148 4 gusting 6 11.7
2015-May-22 22:51 146 3 gusting 5 11.1
2015-May-22 22:41 146 4 gusting 6 11.1
2015-May-22 22:31 201 0 gusting 2 11.7
2015-May-22 22:21 200 11.7
2015-May-22 22:11 201 11.7
2015-May-22 22:01 201 0 gusting 3 12.2
2015-May-22 21:51 200 1 gusting 3 12.2
2015-May-22 21:41 201 2 gusting 4 12.2
2015-May-22 21:31 199 3 gusting 6 12.2
2015-May-22 21:21 223 4 gusting 10 12.8
2015-May-22 21:11 217 5 gusting 11 12.8
2015-May-22 21:01 232 7 gusting 11 12.8
2015-May-22 20:51 233 9 gusting 13 13.3
2015-May-22 20:41 210 9 gusting 13 13.3
2015-May-22 20:31 239 3 gusting 13 13.3
2015-May-22 20:21 235 6 gusting 15 13.9
2015-May-22 20:11 225 6 gusting 13 13.9
2015-May-22 20:01 227 12 gusting 17 13.9
2015-May-22 19:51 248 12 gusting 19 13.9
2015-May-22 19:41 233 10 gusting 19 13.9
2015-May-22 19:31 225 10 gusting 19 14.4
2015-May-22 19:21 220 11 gusting 20 14.4
2015-May-22 19:11 272 12 gusting 23 14.4
2015-May-22 19:01 222 13 gusting 22 15.0
2015-May-22 18:51 265 14 gusting 21 14.4
2015-May-22 18:41 209 8 gusting 21 14.4
2015-May-22 18:31 222 12 gusting 19 13.9
2015-May-22 18:21 224 12 gusting 24 13.9
2015-May-22 18:11 218 8 gusting 19 13.3
2015-May-22 18:01 237 12 gusting 19 13.3
2015-May-22 17:51 225 8 gusting 18 13.9
2015-May-22 17:41 235 13 gusting 20 13.9
2015-May-22 17:31 209 10 gusting 22 13.9
2015-May-22 17:21 246 13 gusting 25 13.9
2015-May-22 17:11 244 13 gusting 23 13.9
2015-May-22 17:01 239 14 gusting 24 13.9
2015-May-22 16:51 213 11 gusting 21 13.9
2015-May-22 16:41 203 13 gusting 19 13.9
2015-May-22 16:21 202 12 gusting 15 13.9
2015-May-22 16:11 252 7 gusting 18 13.3
2015-May-22 16:01 227 13 gusting 18 13.9
2015-May-22 15:51 227 13 gusting 18 13.9
2015-May-22 15:41 236 10 gusting 21 13.9
2015-May-22 15:31 203 13 gusting 22 13.9
2015-May-22 15:21 231 15 gusting 21 13.9
2015-May-22 15:11 233 6 gusting 18 14.4
2015-May-22 15:01 223 8 gusting 17 14.4
2015-May-22 14:41 214 4 gusting 13 13.9
2015-May-22 14:21 252 13 gusting 19 13.9
2015-May-22 14:01 052 4 gusting 6 12.2
2015-May-22 13:51 206 3 gusting 11 13.9
2015-May-22 13:41 250 4 gusting 12 13.3
2015-May-22 13:31 216 5 gusting 13 12.8
2015-May-22 13:21 277 6 gusting 14 12.2
2015-May-22 12:11 077 3 gusting 12 11.1
2015-May-22 12:01 324 7 gusting 10 11.7
2015-May-22 11:51 331 2 gusting 9 12.8
2015-May-22 11:41 229 3 gusting 7 12.8
2015-May-22 11:31 230 1 gusting 8 12.2
2015-May-22 11:21 231 5 gusting 9 11.7
2015-May-22 11:11 260 5 gusting 9 11.7
2015-May-22 11:01 215 4 gusting 11 11.1
2015-May-22 10:51 213 5 gusting 12 10.6
2015-May-22 10:41 248 6 gusting 12 10.0
2015-May-22 10:31 234 8 gusting 11 10.0
2015-May-22 10:21 242 6 gusting 11 9.4
2015-May-22 10:11 206 5 gusting 11 8.9
2015-May-22 10:01 237 7 gusting 13 8.3
2015-May-22 09:31 230 6 gusting 11 7.2
2015-May-22 09:11 227 7 gusting 11 6.1
2015-May-22 09:01 252 6 gusting 9 6.1
2015-May-22 08:51 248 6 gusting 9 5.6
2015-May-22 08:41 248 4 gusting 9 5.0
2015-May-22 08:21 238 4 gusting 8 3.9
2015-May-22 08:11 237 4 gusting 7 3.9
2015-May-22 07:51 248 6 gusting 9 3.9
2015-May-22 07:41 236 4 gusting 7 3.3
2015-May-22 07:31 236 4 gusting 6 3.3
2015-May-22 07:21 235 4 gusting 6 3.3
2015-May-22 07:11 231 4 gusting 6 3.9
2015-May-22 05:51 232 4 gusting 6 4.4
2015-May-22 04:21 255 5 gusting 8 5.0
2015-May-22 04:11 250 5 gusting 6 5.6
2015-May-22 04:01 240 5 gusting 8 5.6
2015-May-22 03:51 259 6 gusting 9 5.6
2015-May-22 03:41 231 7 gusting 10 6.1
2015-May-22 03:31 259 6 gusting 13 6.1
2015-May-22 03:21 204 6 gusting 11 6.1
2015-May-22 03:11 203 5 gusting 12 6.1
2015-May-22 03:01 245 7 gusting 10 6.7
2015-May-22 02:51 243 4 gusting 10 6.7
2015-May-22 02:41 230 6 gusting 13 6.7
2015-May-22 02:31 246 6 gusting 10 6.7
2015-May-22 02:21 228 6 gusting 12 6.7
2015-May-22 02:11 233 4 gusting 12 6.7
2015-May-22 02:01 248 5 gusting 11 7.2
2015-May-22 01:51 207 6 gusting 11 7.2
2015-May-22 01:41 240 3 gusting 10 7.2
2015-May-22 01:31 232 7 gusting 12 7.2
2015-May-22 01:21 259 6 gusting 13 7.8
2015-May-22 01:11 243 6 gusting 17 7.8
2015-May-22 01:01 232 7 gusting 15 7.8
2015-May-22 00:51 256 8 gusting 17 7.8
2015-May-22 00:41 240 8 gusting 19 7.8
2015-May-22 00:31 230 9 gusting 18 8.3
2015-May-22 00:21 232 9 gusting 19 8.3
2015-May-22 00:11 220 9 gusting 16 8.3
2015-May-22 00:01 242 10 gusting 17 8.3
2015-May-21 20:11 256 21 gusting 29 11.1
2015-May-21 18:31 256 16 gusting 34 10.6
2015-May-21 18:21 245 19 gusting 31 10.6
2015-May-21 18:11 248 17 gusting 33 10.6
2015-May-21 18:01 256 18 gusting 32 11.1
2015-May-21 17:21 287 14 gusting 27 11.1
2015-May-21 17:11 252 19 gusting 30 11.1
2015-May-21 17:01 260 13 gusting 29 11.1
2015-May-21 16:51 239 19 gusting 29 11.1
2015-May-21 16:41 250 19 gusting 29 11.1
2015-May-21 16:31 278 13 gusting 26 11.7
2015-May-21 16:21 246 22 gusting 26 11.7
2015-May-21 16:11 259 12 gusting 28 11.7
2015-May-21 16:01 269 14 gusting 28 11.7
2015-May-21 15:51 261 13 gusting 25 11.7
2015-May-21 15:41 223 14 gusting 27 11.7
2015-May-21 15:31 254 16 gusting 28 11.7
2015-May-21 15:21 271 17 gusting 26 11.7
2015-May-21 15:11 232 16 gusting 28 11.1
2015-May-21 15:01 244 13 gusting 25 11.1
2015-May-21 14:51 215 15 gusting 25 11.7
2015-May-21 14:41 254 17 gusting 24 11.1
2015-May-21 14:31 228 13 gusting 22 11.1
2015-May-21 14:21 226 12 gusting 19 10.6
2015-May-21 14:11 236 12 gusting 21 10.0
2015-May-21 14:01 263 13 gusting 20 10.0
2015-May-21 13:51 238 12 gusting 19 9.4
2015-May-21 13:41 224 9 gusting 21 8.9
2015-May-21 13:31 241 12 gusting 25 8.9
2015-May-21 13:21 229 17 gusting 24 8.9
2015-May-21 13:11 248 13 gusting 26 8.9
2015-May-21 13:01 236 12 gusting 24 9.4
2015-May-21 12:51 269 13 gusting 22 10.0
2015-May-21 12:41 257 13 gusting 22 10.6
2015-May-21 12:31 265 11 gusting 21 11.7
2015-May-21 12:21 232 12 gusting 21 11.7
2015-May-21 12:11 233 13 gusting 25 11.7
2015-May-21 12:01 240 14 gusting 21 11.1
2015-May-21 11:51 258 11 gusting 20 10.6
2015-May-21 11:41 238 16 gusting 21 10.6
2015-May-21 11:31 230 17 gusting 25 10.6
2015-May-21 11:21 237 13 gusting 25 10.6
2015-May-21 11:11 276 13 gusting 22 10.6
2015-May-21 11:01 265 12 gusting 17 11.1
2015-May-21 10:51 227 15 gusting 21 11.1
2015-May-21 10:41 222 14 gusting 22 11.1
2015-May-21 10:31 216 16 gusting 28 11.7
2015-May-21 10:21 233 12 gusting 25 11.7
2015-May-21 10:11 263 12 gusting 23 12.2
2015-May-21 10:01 250 13 gusting 22 12.8
2015-May-21 09:51 215 11 gusting 26 12.8
2015-May-21 09:41 219 13 gusting 20 12.8
2015-May-21 09:31 231 12 gusting 20 12.8
2015-May-21 09:21 224 9 gusting 21 12.8
2015-May-21 09:11 220 10 gusting 19 12.8
2015-May-21 09:01 217 13 gusting 19 12.8
2015-May-21 08:51 206 13 gusting 20 13.3
2015-May-21 08:41 222 14 gusting 24 13.3
2015-May-21 08:31 227 13 gusting 26 13.3
2015-May-21 08:21 204 12 gusting 26 13.3
2015-May-21 08:11 202 10 gusting 22 12.8
2015-May-21 08:01 196 13 gusting 19 12.8
2015-May-21 07:51 206 15 gusting 26 12.8
2015-May-21 07:41 187 13 gusting 22 12.8
2015-May-21 07:31 207 11 gusting 23 12.8
2015-May-21 07:21 200 11 gusting 23 12.8
2015-May-21 07:11 225 13 gusting 23 12.8
2015-May-21 07:01 207 11 gusting 23 12.2
2015-May-21 06:51 231 15 gusting 24 12.2
2015-May-21 06:41 208 9 gusting 25 12.2
2015-May-21 06:31 222 13 gusting 21 11.7
2015-May-21 06:21 232 10 gusting 19 11.7
2015-May-21 06:11 202 13 gusting 22 11.1
2015-May-21 06:01 217 18 gusting 26 11.1
2015-May-21 05:51 238 10 gusting 23 11.1
2015-May-21 05:41 214 13 gusting 23 11.1
2015-May-21 05:31 249 10 gusting 18 11.1
2015-May-21 05:21 209 10 gusting 19 11.1
2015-May-21 05:11 216 10 gusting 14 11.1
2015-May-21 05:01 194 11 gusting 22 11.1
2015-May-21 04:51 207 8 gusting 19 10.6
2015-May-21 04:41 213 11 gusting 18 10.6
2015-May-21 04:31 240 11 gusting 24 10.6
2015-May-21 04:21 224 19 gusting 25 10.6
2015-May-21 04:11 209 13 gusting 24 11.1
2015-May-21 04:01 228 16 gusting 23 11.1
2015-May-21 03:51 214 13 gusting 21 11.1
2015-May-21 03:41 207 9 gusting 22 11.1
2015-May-21 03:31 218 13 gusting 21 11.1
2015-May-21 03:21 207 11 gusting 19 10.6
2015-May-21 03:11 210 6 gusting 18 10.6
2015-May-21 03:01 207 6 gusting 19 11.1
2015-May-21 02:51 202 9 gusting 17 11.1
2015-May-21 02:41 236 10 gusting 18 11.1
2015-May-21 02:31 211 6 gusting 16 11.1
2015-May-21 02:21 212 6 gusting 19 11.1
2015-May-21 02:11 212 10 gusting 14 11.1
2015-May-21 02:01 221 7 gusting 15 11.1
2015-May-21 01:51 229 8 gusting 14 11.1
2015-May-21 01:41 240 8 gusting 18 11.1
2015-May-21 01:31 273 6 gusting 17 11.1
2015-May-21 01:21 205 10 gusting 16 11.1
2015-May-21 01:11 223 6 gusting 12 11.1
2015-May-21 01:01 201 4 gusting 14 11.1